Miscellaneous Local Product
Issued by NWS Hastings, NE

Home | Current Version | Previous Version | Graphics & Text | Print | Product List | Glossary On
Versions: 1 2 3 4 5 6 7 8 9 10 11 12 13 14 15 16 17 18 19 20 21 22 23 24 25 26 27 28 29 30 31 32 33 34 35 36 37 38 39 40 41 42 43 44 45 46 47 48 49 50
000
AXUS43 KGID 290302
MISGRI

GID CWA HOURLY WEATHER ROUNDUP
NATIONAL WEATHER SERVICE HASTINGS NE
1000 PM CDT FRI AUG 28 2015

NOTE: "FAIR" INDICATES FEW OR NO CLOUDS BELOW 12,000 FEET WITH NO
SIGNIFICANT WEATHER AND/OR OBSTRUCTIONS TO VISIBILITY.

...SOUTH CENTRAL NEBRASKA...

CITY           SKY/WX    TMP DP  RH WIND       PRES   REMARKS
GRAND ISLAND   CLEAR     65  61  87 N7        30.03R
HASTINGS       CLEAR     63  60  90 NW3       30.03R
KEARNEY        CLEAR     63  55  77 N7        30.04R
ORD            CLEAR     61  59  93 NW6       30.03R
YORK           MOCLDY    66  64  94 NW3       30.01R
AURORA         CLEAR     65  64  97 N6        30.01R
LEXINGTON      CLEAR     66  62  86 N3        30.05R
HOLDREGE       CLEAR     64  61  90 CALM      30.04R
HEBRON         CLEAR     68  62  80 CALM      29.99R

...NEBRASKA PANHANDLE...

CITY           SKY/WX    TMP DP  RH WIND       PRES   REMARKS
CHADRON        CLEAR     71  50  47 VRB5      30.08R
ALLIANCE       CLEAR     64  49  57 CALM      30.14R
SCOTTSBLUFF    CLEAR     66  56  70 E3        30.15R
SIDNEY         CLEAR     69  42  37 NE3       30.18R

...WESTERN AND NORTH CENTRAL NEBRASKA...

CITY           SKY/WX    TMP DP  RH WIND       PRES   REMARKS
VALENTINE      CLEAR     65  60  84 SE3       30.06R
AINSWORTH      CLEAR     65  63  94 CALM      30.08R
ONEILL         CLEAR     66  65  96 CALM      30.05R
BROKEN BOW     CLEAR     64  61  90 NW3       30.06R
IMPERIAL       CLEAR     68  58  70 E5        30.10R
NORTH PLATTE   CLEAR     64  60  87 CALM      30.08R
MCCOOK         CLEAR     68  61  78 MISG      30.07R

...EASTERN NEBRASKA...

CITY           SKY/WX    TMP DP  RH WIND       PRES   REMARKS
NORFOLK        MOCLDY    64  61  90 NE8       30.01R
SO SIOUX CITY  CLOUDY    63  57  81 NE15      29.99R
TEKAMAH        CLOUDY    64  61  90 N16G23    29.97R
COLUMBUS       MOCLDY   N/A N/A N/A NE8       30.01R
ALBION         CLEAR     64  61  89 CALM      30.02R
OMAHA EPPLEY   CLOUDY    64  63  96 N10       29.94R
OFFUTT AFB     CLOUDY    66  63  91 NW12      29.93R
MILLARD        CLOUDY    66  63  90 NW6       29.94R
LINCOLN        CLOUDY    67  62  84 N7        29.98R
NEBRASKA CITY  CLOUDY    67  65  93 N5        29.95R
BEATRICE       PTCLDY    67  62  83 N9        29.97R
FALLS CITY     PTCLDY    69  66  90 W5        29.93R

...NORTHERN KANSAS...

CITY           SKY/WX    TMP DP  RH WIND       PRES   REMARKS
GOODLAND       CLEAR     67  52  58 CALM      30.12R
HILL CITY      CLEAR     70  62  76 NE6       30.05R
NORTON         CLEAR     68  59  73 N3        30.05R
PHILLIPSBURG   CLEAR     73  63  68 CALM      30.03R
SMITH CENTER   CLEAR     66  61  82 NE6       30.03R
HAYS           PTCLDY    73  59  60 NE9       30.03R
RUSSELL        CLEAR     72  63  73 NE7       30.01R
CONCORDIA      CLEAR     69  64  84 N5        29.99R
SALINA         CLEAR     76  66  71 N10       29.98R
TOPEKA         TSTM      74  69  85 VRB6      29.93R



USA.gov is the U.S. government's official web portal to all federal, state and local government web resources and services.